Location: Bidart
(43.4376°N, 1.5913°W)
Time: 17:01:22
(UTC+00:00)

Cosmos 1076 Rocket - Pass Details

Date: 19 May 2025
Orbit: 583 x 603 km, 82.5° (Epoch: 13 June)

Event Time Altitude Azimuth Distance (km) Brightness Sun altitude
Rises 20:29:42 0° 354° (N) 2,866 7.7 -10.0°
Reaches altitude 10° 20:31:57 10° 357° (N) 1,959 6.8 -10.3°
Maximum altitude 20:36:16 68° 81° (E) 656 3.5 -10.9°
Enters shadow 20:40:13 12° 163° (SSE) 1,813 5.4 -11.4°
